GEFSSE_prec_meanprecacc_366.txt.gz
Total_Precipitation_Accumulation
2.67 2.89 3.81 3.81 3.30 2.95 2.77 2.66 2.56 2.66 2.42 2.36 2.52 2.54 2.73 2.89 3.03 3.00 2.94 3.12 3.49 4.10 4.58 4.57 4.23 3.93 3.73 3.55 3.30 3.00 2.89 2.97 3.15 3.35 3.52 3.66 3.85 3.79 3.81 3.64 3.43 2.61 2.62
2.37 2.65 3.53 3.66 3.14 2.85 2.71 2.58 2.61 2.49 2.38 2.46 2.63 2.67 2.91 3.06 3.06 3.02 3.06 3.26 3.50 4.07 4.49 4.13 3.70 3.40 3.34 3.20 2.90 2.71 2.80 3.13 3.35 3.57 3.76 3.69 3.98 4.04 3.88 3.57 3.49 2.57 2.46
1.99 2.14 2.70 3.28 3.12 2.82 2.65 2.60 2.56 2.34 2.33 2.52 2.74 2.75 2.89 2.99 3.10 3.20 3.39 3.54 3.77 4.19 4.05 3.59 3.14 2.97 2.89 2.78 2.67 2.65 2.93 3.40 3.60 3.88 4.17 3.29 3.27 3.93 3.87 3.51 3.15 2.49 2.28
1.63 1.80 2.17 2.73 2.84 2.61 2.40 2.37 2.35 2.30 2.31 2.56 2.90 2.79 2.86 2.95 3.10 3.31 3.66 3.64 3.66 3.63 3.27 3.15 2.84 2.62 2.44 2.47 2.51 2.60 2.96 3.34 3.72 4.12 3.96 2.84 2.59 3.28 3.45 3.15 2.95 2.50 2.16
1.43 1.64 2.17 2.50 2.52 2.46 2.30 2.31 2.39 2.51 2.57 2.81 2.93 2.74 2.77 2.78 2.92 3.21 3.70 3.60 3.37 3.09 2.85 2.84 2.60 2.46 2.18 2.12 2.31 2.59 2.87 3.30 3.86 3.66 2.89 2.73 2.69 2.98 2.94 2.77 2.81 2.51 2.13
1.31 1.62 2.10 2.26 2.03 2.08 2.25 2.33 2.41 2.64 2.86 2.98 2.77 2.72 2.70 2.74 2.75 2.91 3.14 3.17 3.04 2.74 2.63 2.56 2.35 2.20 2.08 2.05 2.32 2.64 2.94 3.59 3.72 2.60 2.32 2.43 2.41 2.71 2.74 2.81 2.75 2.46 2.22
1.37 1.70 1.87 2.08 1.85 1.73 1.89 2.13 2.42 2.72 3.00 2.91 2.63 2.46 2.42 2.45 2.49 2.53 2.62 2.70 2.70 2.55 2.47 2.39 2.27 2.08 2.14 2.11 2.26 2.55 2.97 3.55 3.12 2.31 2.26 2.45 2.35 2.33 2.56 2.80 2.81 2.52 2.36
1.43 1.57 1.81 1.99 1.80 1.71 1.83 1.94 2.14 2.56 2.82 2.66 2.41 2.28 2.19 2.11 2.11 2.19 2.31 2.46 2.51 2.37 2.23 2.17 2.12 2.09 2.09 2.00 2.04 2.41 2.87 2.88 2.44 2.11 2.07 2.34 2.18 2.19 2.47 2.69 2.72 2.62 2.54
1.64 1.83 1.85 1.72 1.72 1.88 2.09 2.21 2.22 2.50 2.60 2.45 2.35 2.21 2.10 2.00 2.05 2.07 2.05 2.19 2.28 2.24 2.16 2.07 2.04 2.00 2.03 2.01 2.08 2.38 2.70 2.82 2.51 2.37 2.06 2.17 1.97 2.19 2.60 2.61 2.55 2.60 2.66
1.78 1.82 1.78 1.61 1.66 1.72 1.96 2.40 2.51 2.55 2.54 2.46 2.36 2.28 2.13 2.04 2.17 2.20 1.97 2.18 2.26 2.34 2.29 2.30 2.38 2.11 2.08 2.23 2.36 2.72 2.95 2.84 2.44 2.50 2.67 2.24 1.96 2.29 2.80 2.82 2.60 2.60 2.70
2.04 1.92 1.77 1.46 1.60 1.83 2.05 2.21 2.38 2.44 2.60 2.68 2.63 2.48 2.47 2.53 2.51 2.61 2.37 2.75 2.75 2.77 2.71 2.74 2.81 2.66 2.57 2.47 2.68 2.99 3.10 2.71 2.68 2.95 2.87 2.21 2.10 2.62 3.10 2.96 2.81 2.83 2.83
2.34 2.14 1.91 1.65 1.72 2.01 2.00 2.02 2.24 2.24 2.45 2.62 2.77 2.66 2.97 3.26 3.09 2.43 2.79 3.31 3.48 3.45 3.31 3.35 3.49 3.26 2.90 2.64 3.20 3.60 3.08 2.96 3.11 3.09 2.94 2.65 2.75 3.22 3.59 3.34 3.20 3.17 3.08
2.32 2.22 2.16 2.02 2.02 1.98 2.12 2.09 2.28 2.48 2.89 2.82 2.74 2.75 3.21 3.12 2.83 2.61 2.94 3.46 3.90 3.66 3.39 3.47 3.65 3.23 3.26 3.55 3.87 3.96 3.50 3.37 3.40 3.29 3.09 3.03 3.32 3.84 4.32 4.11 3.56 3.31 3.25
2.77 2.66 2.57 2.49 2.43 2.47 2.43 2.31 2.25 2.37 2.63 2.77 2.99 2.76 3.09 3.40 3.34 3.28 3.62 3.62 3.87 3.97 4.30 4.05 4.17 3.97 3.88 3.68 3.82 4.09 4.02 4.12 3.76 3.88 3.95 3.69 3.76 4.22 4.80 4.89 4.33 3.83 3.53
3.18 3.08 3.05 2.98 2.98 3.06 3.06 2.92 2.39 2.56 2.67 2.82 3.14 3.16 3.29 3.66 3.84 3.90 3.93 3.86 3.54 3.83 4.27 4.56 4.14 4.47 4.48 4.04 3.74 3.66 3.75 3.88 4.00 4.26 4.27 4.48 4.36 4.41 5.02 5.34 5.01 4.63 4.33
3.29 3.53 3.74 3.67 3.57 3.65 3.60 3.50 3.28 3.06 3.27 3.26 3.44 3.66 3.86 4.22 4.44 4.37 4.18 4.09 3.69 3.62 3.96 4.16 4.14 4.65 4.48 4.19 3.56 3.41 3.49 3.83 4.12 4.21 4.30 4.80 4.75 4.55 4.70 5.27 5.63 5.54 5.15
3.45 4.07 4.45 4.48 4.36 4.40 4.40 4.12 3.84 3.78 3.79 4.07 4.35 4.43 4.44 4.57 4.89 4.69 4.45 4.02 3.76 3.75 4.01 3.99 4.03 4.19 3.97 3.83 3.56 3.61 3.65 3.84 3.99 4.19 4.39 4.73 4.62 4.27 4.26 4.63 5.41 5.88 6.05
3.81 4.51 4.93 5.05 5.23 5.14 5.21 5.00 4.58 4.47 4.48 4.53 4.67 4.88 4.66 4.64 4.57 4.67 4.35 3.84 3.84 3.77 3.87 4.09 3.95 4.03 4.00 3.96 3.92 3.68 3.70 3.79 3.54 3.72 3.94 4.08 4.33 3.94 4.07 4.32 4.76 5.32 6.18
4.20 4.94 5.49 6.07 6.29 6.12 5.88 5.57 5.28 5.26 5.12 4.95 4.94 4.95 4.82 4.48 4.25 4.52 4.26 4.01 3.86 3.80 3.72 3.49 3.99 4.14 4.17 4.16 3.82 3.76 3.40 3.15 3.02 2.93 3.08 3.08 3.45 3.69 3.97 4.06 4.49 4.92 5.88
4.31 5.08 5.81 6.57 6.78 6.51 6.00 5.80 5.78 5.60 5.29 5.03 4.82 4.80 4.48 4.24 3.88 4.14 3.85 3.77 3.86 4.04 3.91 3.96 4.32 4.33 3.99 4.09 3.61 3.49 3.33 2.91 2.82 2.78 2.64 2.67 2.76 2.85 3.43 4.07 4.77 4.46 4.89
4.46 5.18 5.87 6.51 6.65 6.52 6.20 5.90 5.66 5.21 4.91 4.59 4.34 4.21 3.97 3.68 3.55 3.95 3.60 3.95 3.81 3.78 3.65 3.63 3.87 3.91 3.55 3.73 4.11 3.72 3.13 2.73 2.67 2.53 2.52 2.62 2.49 2.66 3.17 3.88 4.45 4.55 4.28
4.20 4.81 5.22 5.37 5.23 5.15 5.25 5.21 4.94 4.93 4.76 4.69 4.54 4.44 3.98 3.75 3.62 3.39 3.63 3.44 3.41 3.59 3.41 3.37 3.62 3.60 3.24 3.56 3.88 4.01 3.48 3.23 2.71 2.08 2.27 2.47 2.57 2.85 2.89 3.06 3.69 4.22 4.11
3.70 4.07 4.09 4.11 4.14 4.29 4.39 4.34 4.39 4.61 4.69 4.80 4.79 4.60 4.24 4.00 3.79 3.56 3.42 3.27 3.26 3.07 3.26 3.34 3.38 3.52 3.51 3.40 3.46 3.86 3.62 3.26 2.78 2.23 2.08 2.35 2.76 3.10 3.01 3.04 3.03 3.44 3.69
2.96 3.14 3.14 3.29 3.49 3.62 3.71 3.69 3.60 3.65 3.92 4.21 4.50 4.66 4.60 4.31 4.00 3.66 3.40 3.18 3.04 2.83 3.15 2.83 2.99 3.33 3.57 3.26 3.19 3.13 3.14 3.32 3.23 2.82 2.29 2.12 2.38 2.65 2.71 2.59 2.69 3.03 3.34
2.22 2.40 2.48 2.76 3.26 3.49 3.55 3.66 3.62 3.37 3.39 3.51 3.67 3.91 3.92 3.95 3.75 3.34 3.24 3.17 2.98 2.77 2.82 2.82 3.19 3.19 3.16 3.09 3.16 3.10 3.22 3.44 3.23 3.09 2.75 2.58 2.64 2.49 2.36 2.36 2.48 2.70 3.06
1.84 2.00 2.23 2.56 3.15 3.46 3.54 3.44 3.47 3.50 3.58 3.49 3.46 3.57 3.49 3.46 3.36 3.04 2.90 3.06 2.95 2.83 2.87 2.87 2.97 3.02 3.17 3.23 3.23 3.22 3.29 3.29 3.33 3.52 3.15 2.91 2.87 2.51 2.36 2.38 2.51 2.71 2.94

GEFSSE_prec_meanprecacc_372.txt.gz
Total_Precipitation_Accumulation
2.70 2.92 3.83 3.83 3.35 3.03 2.86 2.76 2.72 2.75 2.48 2.44 2.61 2.63 2.82 2.98 3.10 3.06 3.01 3.22 3.59 4.19 4.70 4.72 4.40 4.08 3.85 3.64 3.38 3.09 2.99 3.06 3.24 3.44 3.59 3.72 3.90 3.83 3.87 3.71 3.52 2.69 2.68
2.40 2.68 3.55 3.70 3.20 2.92 2.79 2.69 2.75 2.57 2.44 2.51 2.68 2.74 2.98 3.14 3.15 3.09 3.14 3.35 3.58 4.16 4.61 4.27 3.84 3.56 3.48 3.31 3.00 2.80 2.89 3.22 3.42 3.66 3.84 3.77 4.06 4.11 3.95 3.66 3.61 2.69 2.53
2.01 2.19 2.75 3.32 3.17 2.90 2.73 2.68 2.63 2.42 2.40 2.59 2.80 2.81 2.95 3.07 3.18 3.29 3.47 3.63 3.87 4.29 4.16 3.72 3.27 3.11 3.04 2.91 2.81 2.78 3.05 3.51 3.69 3.98 4.26 3.37 3.35 4.00 3.96 3.63 3.29 2.62 2.34
1.66 1.86 2.24 2.78 2.89 2.66 2.48 2.46 2.43 2.37 2.40 2.66 2.97 2.85 2.91 3.01 3.18 3.41 3.77 3.80 3.87 3.84 3.46 3.32 2.98 2.77 2.59 2.63 2.65 2.75 3.12 3.47 3.86 4.24 4.05 2.91 2.65 3.38 3.57 3.30 3.11 2.65 2.26
1.47 1.69 2.22 2.54 2.56 2.52 2.53 2.69 2.61 2.62 2.68 2.93 3.03 2.81 2.82 2.84 2.99 3.30 3.88 3.81 3.54 3.24 3.02 3.04 2.79 2.64 2.34 2.27 2.46 2.73 3.01 3.43 4.00 3.78 2.94 2.79 2.77 3.06 3.02 2.87 2.96 2.68 2.26
1.34 1.67 2.14 2.30 2.07 2.15 2.49 2.62 2.69 2.81 2.99 3.13 2.89 2.82 2.78 2.81 2.84 3.04 3.37 3.33 3.19 2.90 2.81 2.75 2.60 2.40 2.26 2.23 2.48 2.77 3.11 3.77 3.89 2.72 2.39 2.52 2.52 2.83 2.84 2.91 2.89 2.66 2.41
1.42 1.75 1.91 2.13 1.89 1.77 1.99 2.30 2.61 2.91 3.23 3.13 2.76 2.57 2.51 2.52 2.57 2.66 2.81 2.85 2.83 2.67 2.62 2.55 2.44 2.21 2.26 2.25 2.42 2.68 3.12 3.73 3.29 2.45 2.41 2.62 2.49 2.44 2.65 2.90 2.95 2.71 2.58
1.47 1.61 1.85 2.03 1.83 1.74 1.87 2.00 2.25 2.72 3.04 2.84 2.52 2.36 2.26 2.17 2.17 2.26 2.45 2.63 2.62 2.46 2.32 2.27 2.24 2.17 2.16 2.09 2.17 2.55 3.01 3.02 2.60 2.25 2.21 2.48 2.30 2.28 2.57 2.79 2.83 2.76 2.72
1.69 1.89 1.90 1.76 1.75 1.92 2.12 2.24 2.28 2.58 2.69 2.55 2.44 2.29 2.15 2.05 2.11 2.13 2.16 2.39 2.46 2.38 2.29 2.23 2.17 2.07 2.08 2.05 2.15 2.49 2.80 2.93 2.63 2.48 2.17 2.28 2.06 2.28 2.71 2.75 2.69 2.75 2.82
1.89 1.90 1.83 1.65 1.70 1.76 2.02 2.44 2.54 2.56 2.56 2.50 2.39 2.31 2.17 2.09 2.24 2.26 2.04 2.36 2.48 2.56 2.48 2.46 2.49 2.19 2.15 2.29 2.42 2.80 3.05 2.94 2.52 2.59 2.76 2.31 2.03 2.38 2.92 2.94 2.70 2.69 2.82
2.15 2.04 1.85 1.51 1.65 1.86 2.09 2.25 2.41 2.46 2.62 2.72 2.67 2.51 2.51 2.62 2.62 2.72 2.45 2.86 2.93 2.95 2.86 2.85 2.90 2.75 2.67 2.54 2.76 3.06 3.18 2.80 2.74 3.02 2.97 2.26 2.15 2.69 3.20 3.04 2.87 2.90 2.92
2.41 2.22 1.99 1.72 1.76 2.04 2.02 2.05 2.28 2.28 2.50 2.67 2.86 2.73 3.05 3.37 3.19 2.52 2.87 3.37 3.58 3.59 3.46 3.49 3.60 3.36 3.01 2.75 3.33 3.71 3.16 3.03 3.17 3.19 3.02 2.69 2.78 3.26 3.66 3.42 3.29 3.25 3.14
2.36 2.27 2.21 2.07 2.08 2.01 2.15 2.13 2.33 2.54 2.97 2.90 2.85 2.84 3.30 3.20 2.90 2.69 3.04 3.54 3.99 3.77 3.56 3.67 3.82 3.35 3.38 3.70 4.04 4.08 3.60 3.47 3.50 3.45 3.21 3.10 3.37 3.89 4.39 4.18 3.64 3.41 3.32
2.81 2.69 2.61 2.51 2.46 2.51 2.46 2.35 2.29 2.41 2.70 2.84 3.09 2.84 3.19 3.50 3.44 3.38 3.73 3.71 3.99 4.11 4.47 4.22 4.34 4.08 3.99 3.80 3.96 4.21 4.15 4.23 3.86 3.98 4.03 3.74 3.83 4.30 4.87 4.98 4.41 3.92 3.62
3.21 3.10 3.09 3.00 3.01 3.09 3.10 2.96 2.43 2.60 2.72 2.86 3.20 3.24 3.37 3.74 3.92 3.99 4.02 3.97 3.65 3.93 4.38 4.66 4.24 4.55 4.56 4.12 3.81 3.73 3.83 3.98 4.09 4.37 4.35 4.54 4.43 4.49 5.09 5.45 5.09 4.72 4.44
3.31 3.55 3.77 3.69 3.60 3.68 3.63 3.54 3.31 3.10 3.30 3.30 3.49 3.73 3.93 4.29 4.53 4.47 4.27 4.19 3.77 3.68 4.02 4.25 4.24 4.75 4.56 4.26 3.61 3.46 3.55 3.92 4.22 4.30 4.39 4.88 4.80 4.61 4.77 5.35 5.70 5.63 5.24
3.48 4.09 4.48 4.50 4.38 4.43 4.44 4.16 3.86 3.80 3.81 4.10 4.41 4.49 4.51 4.66 5.01 4.80 4.54 4.11 3.84 3.81 4.06 4.05 4.10 4.26 4.02 3.89 3.62 3.66 3.71 3.91 4.04 4.25 4.50 4.85 4.71 4.35 4.35 4.72 5.50 5.99 6.18
3.83 4.55 4.96 5.06 5.26 5.17 5.25 5.04 4.61 4.50 4.52 4.58 4.73 4.95 4.73 4.71 4.65 4.76 4.44 3.91 3.90 3.83 3.92 4.14 4.01 4.09 4.06 4.02 3.97 3.73 3.77 3.87 3.59 3.75 3.99 4.16 4.44 4.02 4.16 4.40 4.83 5.42 6.31
4.22 4.96 5.53 6.11 6.32 6.14 5.93 5.62 5.32 5.30 5.16 4.99 4.99 5.01 4.89 4.54 4.33 4.60 4.34 4.09 3.93 3.86 3.78 3.55 4.06 4.22 4.25 4.23 3.87 3.80 3.45 3.21 3.07 2.97 3.10 3.12 3.50 3.75 4.02 4.13 4.55 4.98 5.98
4.33 5.10 5.85 6.62 6.82 6.55 6.04 5.86 5.84 5.65 5.34 5.08 4.86 4.86 4.55 4.32 3.94 4.21 3.92 3.83 3.92 4.12 3.99 4.05 4.41 4.42 4.06 4.15 3.66 3.53 3.37 2.95 2.86 2.81 2.67 2.71 2.79 2.88 3.46 4.12 4.85 4.53 4.96
4.48 5.20 5.90 6.55 6.70 6.57 6.25 5.95 5.72 5.28 4.97 4.64 4.39 4.27 4.07 3.76 3.62 4.02 3.65 4.01 3.87 3.85 3.72 3.71 3.97 4.01 3.63 3.80 4.18 3.78 3.18 2.77 2.71 2.57 2.55 2.67 2.53 2.71 3.23 3.95 4.53 4.66 4.36
4.21 4.83 5.26 5.41 5.27 5.19 5.30 5.26 5.00 5.00 4.82 4.76 4.61 4.50 4.04 3.82 3.69 3.44 3.69 3.51 3.48 3.69 3.48 3.45 3.71 3.70 3.33 3.66 3.96 4.10 3.56 3.30 2.77 2.12 2.31 2.51 2.61 2.91 2.95 3.14 3.81 4.36 4.24
3.73 4.09 4.11 4.14 4.17 4.33 4.44 4.40 4.45 4.68 4.77 4.88 4.85 4.64 4.27 4.02 3.82 3.59 3.46 3.32 3.33 3.14 3.34 3.42 3.47 3.62 3.60 3.50 3.55 3.95 3.71 3.35 2.86 2.30 2.12 2.38 2.81 3.16 3.07 3.11 3.13 3.55 3.80
3.00 3.17 3.17 3.32 3.52 3.66 3.76 3.75 3.66 3.70 3.96 4.25 4.55 4.71 4.64 4.33 4.01 3.68 3.43 3.23 3.10 2.90 3.22 2.90 3.06 3.41 3.66 3.34 3.28 3.21 3.21 3.41 3.33 2.91 2.37 2.19 2.45 2.72 2.76 2.64 2.76 3.11 3.44
2.23 2.42 2.50 2.78 3.28 3.51 3.58 3.69 3.65 3.41 3.43 3.55 3.72 3.95 3.96 3.98 3.78 3.37 3.28 3.20 3.02 2.82 2.87 2.88 3.25 3.25 3.22 3.14 3.22 3.17 3.30 3.51 3.29 3.16 2.83 2.67 2.72 2.55 2.41 2.40 2.52 2.75 3.12
1.84 2.01 2.24 2.58 3.17 3.49 3.56 3.46 3.49 3.53 3.62 3.53 3.50 3.61 3.52 3.49 3.40 3.10 2.95 3.09 2.98 2.86 2.92 2.92 3.03 3.08 3.22 3.29 3.28 3.27 3.36 3.35 3.38 3.57 3.21 2.99 2.96 2.60 2.42 2.43 2.54 2.73 2.96

GEFSSE_prec_meanprecacc_378.txt.gz
Total_Precipitation_Accumulation
2.75 2.95 3.89 3.89 3.40 3.07 2.91 2.84 2.82 2.82 2.52 2.47 2.67 2.68 2.86 3.01 3.14 3.16 3.11 3.32 3.68 4.28 4.79 4.80 4.46 4.14 3.91 3.71 3.48 3.20 3.10 3.16 3.34 3.53 3.68 3.81 3.96 3.89 3.91 3.76 3.57 2.72 2.72
2.44 2.72 3.60 3.73 3.25 3.00 2.87 2.78 2.88 2.64 2.48 2.54 2.73 2.80 3.03 3.20 3.24 3.21 3.25 3.42 3.62 4.20 4.67 4.34 3.91 3.63 3.55 3.37 3.08 2.89 2.99 3.32 3.50 3.74 3.90 3.83 4.13 4.17 4.00 3.71 3.66 2.72 2.57
2.03 2.22 2.79 3.35 3.19 2.96 2.83 2.79 2.75 2.48 2.44 2.63 2.85 2.86 3.00 3.12 3.24 3.35 3.53 3.66 3.89 4.31 4.19 3.76 3.33 3.19 3.11 2.98 2.89 2.88 3.14 3.58 3.76 4.05 4.32 3.42 3.40 4.08 4.03 3.70 3.36 2.67 2.37
1.69 1.89 2.27 2.81 2.92 2.72 2.60 2.57 2.52 2.42 2.45 2.71 3.03 2.89 2.95 3.05 3.24 3.48 3.81 3.83 3.90 3.87 3.49 3.35 3.03 2.82 2.67 2.73 2.76 2.86 3.22 3.57 3.94 4.30 4.08 2.94 2.69 3.45 3.68 3.41 3.20 2.71 2.30
1.49 1.71 2.25 2.56 2.59 2.61 2.69 2.85 2.69 2.68 2.74 2.99 3.08 2.86 2.86 2.88 3.05 3.37 3.93 3.86 3.60 3.32 3.10 3.12 2.86 2.72 2.42 2.38 2.59 2.86 3.11 3.52 4.09 3.85 2.98 2.83 2.83 3.14 3.12 2.97 3.06 2.76 2.32
1.37 1.70 2.16 2.33 2.14 2.31 2.65 2.80 2.86 2.93 3.09 3.20 2.94 2.85 2.81 2.85 2.89 3.11 3.44 3.42 3.31 3.03 2.96 2.90 2.73 2.50 2.34 2.33 2.59 2.91 3.22 3.86 3.97 2.78 2.45 2.58 2.59 2.88 2.91 3.00 2.98 2.76 2.51
1.45 1.78 1.93 2.17 1.98 1.93 2.19 2.49 2.81 3.11 3.37 3.22 2.81 2.61 2.55 2.58 2.63 2.73 2.90 2.96 2.93 2.74 2.69 2.65 2.55 2.32 2.36 2.35 2.53 2.80 3.27 3.87 3.39 2.51 2.47 2.68 2.54 2.49 2.72 2.99 3.05 2.82 2.73
1.51 1.64 1.89 2.06 1.87 1.84 1.98 2.12 2.38 2.86 3.16 2.92 2.57 2.40 2.30 2.21 2.22 2.31 2.53 2.74 2.70 2.51 2.36 2.32 2.34 2.30 2.28 2.18 2.26 2.66 3.17 3.21 2.76 2.34 2.26 2.52 2.37 2.36 2.66 2.88 2.92 2.86 2.86
1.73 1.92 1.93 1.79 1.78 1.94 2.16 2.30 2.36 2.68 2.79 2.62 2.49 2.33 2.19 2.09 2.15 2.18 2.24 2.53 2.54 2.41 2.32 2.28 2.27 2.20 2.20 2.15 2.24 2.60 2.95 3.09 2.76 2.56 2.23 2.33 2.12 2.36 2.81 2.86 2.80 2.87 2.94
1.94 1.94 1.86 1.68 1.74 1.79 2.05 2.48 2.58 2.61 2.61 2.53 2.43 2.36 2.22 2.14 2.30 2.32 2.12 2.53 2.65 2.64 2.54 2.54 2.61 2.31 2.25 2.37 2.51 2.90 3.17 3.07 2.62 2.65 2.83 2.38 2.10 2.46 3.02 3.06 2.82 2.81 2.92
2.21 2.09 1.89 1.55 1.68 1.89 2.11 2.27 2.43 2.49 2.66 2.75 2.70 2.55 2.55 2.65 2.66 2.78 2.55 3.02 3.17 3.11 2.98 2.99 3.05 2.86 2.75 2.61 2.85 3.17 3.28 2.86 2.78 3.06 3.02 2.33 2.24 2.77 3.28 3.11 2.94 2.97 2.99
2.49 2.29 2.05 1.76 1.79 2.06 2.04 2.07 2.29 2.30 2.53 2.70 2.90 2.76 3.07 3.39 3.22 2.57 2.93 3.46 3.78 3.83 3.66 3.67 3.73 3.45 3.08 2.82 3.41 3.79 3.21 3.08 3.21 3.23 3.07 2.75 2.86 3.35 3.77 3.52 3.36 3.31 3.21
2.39 2.30 2.25 2.12 2.12 2.03 2.16 2.14 2.34 2.56 2.99 2.94 2.88 2.86 3.31 3.22 2.92 2.72 3.09 3.59 4.10 3.96 3.76 3.82 3.94 3.44 3.45 3.79 4.12 4.14 3.66 3.55 3.57 3.53 3.29 3.18 3.46 3.99 4.52 4.28 3.71 3.46 3.38
2.83 2.70 2.62 2.53 2.48 2.53 2.48 2.37 2.31 2.43 2.72 2.87 3.12 2.87 3.20 3.52 3.46 3.41 3.77 3.77 4.06 4.21 4.59 4.35 4.45 4.17 4.06 3.88 4.02 4.27 4.20 4.27 3.94 4.05 4.13 3.83 3.94 4.47 5.02 5.08 4.50 3.99 3.68
3.23 3.11 3.10 3.01 3.02 3.11 3.12 2.98 2.45 2.62 2.73 2.88 3.22 3.26 3.38 3.76 3.94 4.01 4.05 4.01 3.71 3.99 4.44 4.73 4.31 4.62 4.63 4.17 3.86 3.79 3.88 4.04 4.16 4.42 4.41 4.62 4.51 4.60 5.19 5.55 5.18 4.80 4.52
3.33 3.56 3.77 3.70 3.61 3.69 3.65 3.55 3.33 3.12 3.33 3.32 3.51 3.75 3.94 4.31 4.55 4.49 4.29 4.22 3.81 3.73 4.07 4.29 4.27 4.78 4.61 4.32 3.66 3.51 3.62 4.01 4.31 4.38 4.44 4.96 4.89 4.68 4.86 5.46 5.81 5.73 5.35
3.50 4.10 4.49 4.51 4.40 4.46 4.46 4.17 3.87 3.82 3.82 4.12 4.43 4.52 4.52 4.67 5.03 4.82 4.57 4.13 3.86 3.85 4.10 4.07 4.12 4.28 4.06 3.93 3.67 3.72 3.77 3.96 4.12 4.34 4.57 4.95 4.80 4.41 4.42 4.81 5.60 6.08 6.27
3.85 4.55 4.98 5.08 5.28 5.20 5.28 5.07 4.63 4.52 4.53 4.59 4.75 4.97 4.75 4.73 4.67 4.79 4.47 3.94 3.93 3.85 3.94 4.17 4.04 4.13 4.09 4.06 4.01 3.78 3.81 3.90 3.65 3.81 4.05 4.24 4.52 4.07 4.21 4.46 4.91 5.50 6.40
4.23 4.97 5.55 6.13 6.34 6.18 5.95 5.65 5.35 5.34 5.20 5.02 5.00 5.02 4.90 4.56 4.35 4.62 4.36 4.11 3.95 3.89 3.80 3.58 4.11 4.26 4.29 4.28 3.91 3.84 3.48 3.24 3.11 3.02 3.14 3.17 3.56 3.80 4.07 4.18 4.61 5.05 6.05
4.34 5.11 5.87 6.64 6.84 6.58 6.07 5.90 5.89 5.72 5.40 5.13 4.90 4.89 4.59 4.36 3.97 4.24 3.95 3.85 3.94 4.14 4.02 4.08 4.46 4.46 4.10 4.20 3.70 3.57 3.41 3.00 2.91 2.87 2.70 2.75 2.84 2.95 3.52 4.18 4.91 4.60 5.04
4.50 5.21 5.92 6.56 6.71 6.58 6.28 5.99 5.76 5.34 5.04 4.71 4.46 4.36 4.14 3.81 3.65 4.05 3.68 4.03 3.89 3.87 3.74 3.75 4.01 4.04 3.66 3.85 4.24 3.82 3.22 2.81 2.75 2.61 2.60 2.71 2.58 2.77 3.30 4.01 4.60 4.74 4.48
4.25 4.86 5.28 5.42 5.28 5.20 5.31 5.28 5.02 5.04 4.88 4.82 4.69 4.58 4.10 3.87 3.73 3.48 3.72 3.53 3.51 3.73 3.52 3.50 3.78 3.73 3.37 3.71 4.02 4.15 3.60 3.34 2.80 2.15 2.35 2.56 2.67 2.97 3.02 3.19 3.87 4.42 4.31
3.77 4.11 4.13 4.14 4.18 4.34 4.44 4.41 4.47 4.72 4.81 4.92 4.89 4.68 4.30 4.05 3.86 3.64 3.50 3.36 3.38 3.19 3.38 3.46 3.53 3.66 3.63 3.53 3.60 3.99 3.75 3.38 2.89 2.33 2.15 2.43 2.85 3.20 3.12 3.17 3.19 3.59 3.85
3.06 3.20 3.19 3.33 3.53 3.67 3.77 3.75 3.67 3.72 3.98 4.28 4.56 4.73 4.67 4.36 4.06 3.74 3.49 3.28 3.15 2.95 3.26 2.93 3.09 3.44 3.68 3.36 3.32 3.25 3.25 3.45 3.36 2.94 2.42 2.23 2.48 2.75 2.80 2.69 2.82 3.17 3.50
2.26 2.43 2.51 2.80 3.30 3.53 3.59 3.70 3.66 3.42 3.45 3.57 3.74 3.97 3.98 4.01 3.83 3.43 3.32 3.24 3.06 2.85 2.90 2.91 3.28 3.28 3.24 3.16 3.25 3.21 3.34 3.57 3.34 3.19 2.86 2.73 2.79 2.60 2.44 2.44 2.56 2.80 3.17
1.86 2.02 2.25 2.59 3.19 3.50 3.56 3.46 3.50 3.55 3.64 3.55 3.51 3.62 3.53 3.52 3.44 3.12 2.98 3.12 3.01 2.90 2.94 2.94 3.05 3.10 3.24 3.31 3.30 3.30 3.38 3.39 3.42 3.60 3.22 3.02 3.01 2.65 2.46 2.47 2.58 2.75 2.98

GEFSSE_prec_meanprecacc_384.txt.gz
Total_Precipitation_Accumulation
2.77 2.99 3.98 3.98 3.51 3.16 2.98 2.90 2.91 2.92 2.61 2.57 2.74 2.73 2.91 3.08 3.22 3.24 3.21 3.39 3.74 4.34 4.86 4.90 4.54 4.21 3.98 3.83 3.68 3.35 3.22 3.25 3.42 3.61 3.74 3.87 4.03 3.94 3.97 3.83 3.63 2.77 2.78
2.45 2.74 3.65 3.81 3.38 3.12 2.94 2.86 2.96 2.71 2.55 2.61 2.80 2.86 3.13 3.32 3.35 3.34 3.39 3.54 3.73 4.27 4.73 4.41 3.97 3.70 3.61 3.46 3.18 2.98 3.08 3.41 3.59 3.83 3.99 3.91 4.22 4.25 4.07 3.77 3.71 2.75 2.64
2.05 2.24 2.81 3.40 3.28 3.12 2.96 2.89 2.83 2.55 2.52 2.71 2.95 2.97 3.11 3.26 3.41 3.50 3.67 3.78 4.00 4.40 4.25 3.83 3.40 3.26 3.18 3.04 2.95 2.97 3.24 3.68 3.85 4.16 4.43 3.51 3.50 4.19 4.13 3.79 3.44 2.73 2.44
1.71 1.92 2.29 2.85 2.98 2.90 2.80 2.73 2.60 2.50 2.52 2.78 3.09 2.97 3.05 3.18 3.34 3.57 3.91 3.92 3.98 3.96 3.57 3.43 3.11 2.90 2.74 2.80 2.83 2.95 3.33 3.68 4.05 4.39 4.14 2.97 2.75 3.54 3.80 3.52 3.30 2.81 2.39
1.52 1.74 2.27 2.62 2.68 2.82 2.90 3.03 2.79 2.76 2.82 3.06 3.14 2.94 2.94 2.95 3.10 3.43 4.02 3.94 3.68 3.41 3.21 3.21 2.97 2.81 2.51 2.47 2.68 2.96 3.21 3.63 4.21 3.92 3.00 2.85 2.86 3.21 3.23 3.08 3.18 2.90 2.46
1.40 1.73 2.22 2.49 2.39 2.60 2.98 3.08 3.02 3.04 3.18 3.27 3.00 2.94 2.90 2.92 2.95 3.19 3.53 3.50 3.39 3.12 3.06 2.99 2.83 2.60 2.45 2.44 2.69 3.00 3.33 3.97 4.07 2.83 2.46 2.59 2.62 2.93 3.01 3.11 3.11 2.91 2.67
1.47 1.82 2.02 2.42 2.19 2.19 2.60 2.97 3.20 3.34 3.51 3.32 2.89 2.69 2.64 2.66 2.72 2.83 3.00 3.05 3.03 2.84 2.79 2.75 2.68 2.46 2.49 2.49 2.64 2.90 3.38 3.97 3.46 2.56 2.49 2.68 2.56 2.54 2.80 3.07 3.16 2.96 2.90
1.54 1.68 1.97 2.23 2.07 2.09 2.24 2.40 2.68 3.07 3.31 3.05 2.69 2.51 2.40 2.30 2.31 2.42 2.63 2.84 2.81 2.63 2.47 2.44 2.46 2.48 2.44 2.30 2.37 2.77 3.30 3.30 2.82 2.37 2.28 2.54 2.39 2.41 2.73 2.98 3.02 2.97 3.02
1.76 1.95 1.98 1.88 1.89 2.05 2.26 2.44 2.55 2.86 2.92 2.75 2.62 2.43 2.29 2.19 2.24 2.26 2.32 2.63 2.65 2.52 2.44 2.42 2.42 2.39 2.34 2.26 2.36 2.72 3.06 3.18 2.81 2.59 2.26 2.35 2.16 2.42 2.90 2.98 2.91 2.97 3.09
1.96 1.95 1.88 1.71 1.77 1.82 2.08 2.54 2.68 2.73 2.73 2.67 2.57 2.48 2.32 2.23 2.38 2.39 2.20 2.62 2.75 2.73 2.64 2.65 2.72 2.44 2.38 2.50 2.63 3.04 3.30 3.20 2.68 2.69 2.87 2.42 2.16 2.53 3.11 3.15 2.93 2.92 3.04
2.24 2.09 1.90 1.56 1.70 1.91 2.14 2.32 2.50 2.58 2.74 2.83 2.79 2.65 2.62 2.71 2.72 2.84 2.62 3.12 3.28 3.19 3.05 3.06 3.12 2.96 2.87 2.74 3.01 3.33 3.42 2.95 2.82 3.09 3.05 2.38 2.30 2.84 3.37 3.18 3.02 3.05 3.07
2.51 2.31 2.06 1.77 1.80 2.07 2.06 2.09 2.32 2.34 2.55 2.72 2.91 2.79 3.10 3.42 3.26 2.61 3.00 3.57 3.92 3.95 3.75 3.74 3.82 3.57 3.20 2.90 3.50 3.90 3.32 3.14 3.25 3.26 3.10 2.79 2.93 3.43 3.85 3.59 3.43 3.37 3.28
2.41 2.33 2.29 2.15 2.14 2.04 2.18 2.17 2.37 2.59 3.01 2.95 2.90 2.88 3.33 3.23 2.94 2.75 3.12 3.65 4.19 4.09 3.85 3.91 4.06 3.55 3.54 3.86 4.15 4.17 3.68 3.57 3.59 3.56 3.32 3.21 3.52 4.07 4.61 4.39 3.81 3.54 3.43
2.85 2.73 2.68 2.59 2.52 2.55 2.50 2.39 2.33 2.45 2.73 2.88 3.14 2.89 3.22 3.54 3.48 3.44 3.80 3.81 4.13 4.32 4.71 4.48 4.58 4.28 4.15 3.94 4.05 4.29 4.21 4.28 3.95 4.06 4.15 3.87 4.00 4.55 5.13 5.20 4.61 4.09 3.76
3.25 3.15 3.15 3.07 3.08 3.14 3.14 2.99 2.47 2.64 2.74 2.88 3.23 3.27 3.39 3.77 3.96 4.04 4.09 4.06 3.77 4.09 4.56 4.86 4.43 4.72 4.71 4.22 3.89 3.80 3.88 4.04 4.17 4.42 4.43 4.65 4.57 4.69 5.30 5.70 5.33 4.92 4.63
3.35 3.59 3.81 3.74 3.66 3.72 3.66 3.56 3.34 3.13 3.35 3.33 3.52 3.76 3.95 4.32 4.56 4.51 4.33 4.27 3.87 3.79 4.14 4.37 4.36 4.87 4.69 4.36 3.69 3.54 3.63 4.01 4.32 4.39 4.46 4.99 4.94 4.74 4.93 5.58 5.95 5.83 5.46
3.50 4.12 4.51 4.52 4.42 4.48 4.47 4.18 3.89 3.85 3.86 4.16 4.46 4.53 4.53 4.68 5.04 4.84 4.59 4.18 3.92 3.90 4.14 4.12 4.18 4.34 4.11 3.97 3.70 3.74 3.79 3.98 4.13 4.35 4.59 4.97 4.83 4.45 4.46 4.86 5.69 6.20 6.39
3.85 4.57 4.99 5.09 5.30 5.22 5.30 5.08 4.65 4.56 4.57 4.63 4.79 5.00 4.76 4.75 4.68 4.81 4.49 3.98 3.98 3.90 3.99 4.21 4.09 4.16 4.13 4.09 4.04 3.81 3.83 3.92 3.67 3.83 4.07 4.27 4.54 4.10 4.25 4.51 4.98 5.59 6.53
4.24 4.99 5.56 6.14 6.36 6.19 5.97 5.66 5.38 5.38 5.23 5.06 5.05 5.06 4.93 4.59 4.38 4.64 4.39 4.15 3.99 3.93 3.85 3.63 4.14 4.28 4.31 4.30 3.94 3.86 3.51 3.27 3.14 3.05 3.17 3.19 3.59 3.83 4.10 4.22 4.66 5.11 6.11
4.36 5.14 5.90 6.65 6.86 6.59 6.08 5.91 5.91 5.74 5.44 5.16 4.94 4.94 4.63 4.39 4.00 4.26 3.99 3.91 3.99 4.18 4.06 4.14 4.51 4.49 4.13 4.23 3.74 3.59 3.44 3.04 2.95 2.90 2.73 2.78 2.87 2.98 3.56 4.21 4.95 4.64 5.10
4.55 5.27 5.95 6.58 6.73 6.60 6.29 6.01 5.78 5.37 5.08 4.75 4.50 4.39 4.19 3.86 3.69 4.08 3.72 4.08 3.94 3.90 3.79 3.80 4.07 4.08 3.68 3.88 4.26 3.84 3.24 2.84 2.78 2.65 2.64 2.75 2.61 2.80 3.34 4.05 4.62 4.77 4.51
4.32 4.90 5.29 5.43 5.28 5.20 5.32 5.31 5.05 5.07 4.91 4.85 4.73 4.63 4.14 3.91 3.79 3.52 3.76 3.56 3.54 3.76 3.56 3.55 3.83 3.77 3.39 3.73 4.04 4.18 3.63 3.36 2.82 2.18 2.41 2.62 2.72 3.02 3.07 3.23 3.90 4.45 4.34
3.80 4.12 4.13 4.15 4.18 4.35 4.45 4.43 4.49 4.75 4.84 4.94 4.93 4.72 4.33 4.10 3.92 3.70 3.54 3.39 3.41 3.22 3.41 3.50 3.57 3.70 3.67 3.57 3.63 4.03 3.77 3.39 2.90 2.35 2.18 2.47 2.91 3.28 3.19 3.21 3.23 3.64 3.90
3.07 3.21 3.19 3.33 3.53 3.68 3.78 3.77 3.68 3.73 4.00 4.29 4.58 4.76 4.70 4.39 4.10 3.79 3.53 3.32 3.18 2.98 3.29 2.97 3.11 3.47 3.73 3.40 3.35 3.28 3.27 3.46 3.37 2.96 2.44 2.26 2.52 2.82 2.89 2.76 2.88 3.25 3.57
2.28 2.45 2.52 2.80 3.31 3.54 3.60 3.71 3.67 3.43 3.46 3.59 3.75 3.99 4.00 4.03 3.86 3.47 3.35 3.28 3.11 2.90 2.94 2.94 3.30 3.30 3.27 3.20 3.27 3.23 3.36 3.59 3.35 3.20 2.88 2.75 2.82 2.64 2.50 2.51 2.62 2.87 3.23
1.87 2.03 2.26 2.61 3.20 3.51 3.58 3.48 3.52 3.56 3.65 3.56 3.53 3.63 3.55 3.54 3.48 3.16 3.02 3.15 3.06 2.94 2.98 2.97 3.07 3.12 3.26 3.32 3.32 3.32 3.41 3.41 3.44 3.62 3.23 3.04 3.03 2.67 2.49 2.51 2.63 2.80 3.03